DW6920 Weather Reports


time (UTC)temp
F
wind
direction
speed
knots
gust
knots
rain 1hr
in
rain 24hr
in
rain mn
in
humidity
%
barometer
mb
20260505031540 49 190 0.0 0.0 0.00 0.00 0.00 88 1012.2
20260505030020 49 269 0.0 0.0 0.00 0.00 0.00 88 1012.4
20260505024516 49 223 0.0 0.0 0.00 0.00 0.00 87 1012.3
20260505023102 50 242 0.0 0.0 0.00 0.00 0.00 87 1012.3
20260505021558 50 232 0.0 0.0 0.00 0.00 0.00 86 1012.3
20260505020050 50 242 0.0 0.0 0.00 0.00 0.00 87 1012.3
20260505014537 50 255 0.0 0.0 0.00 0.00 0.00 87 1012.3
20260505013017 50 248 0.0 0.0 0.00 0.00 0.00 86 1012.2
20260505011516 50 257 0.0 0.0 0.00 0.00 0.00 85 1012.0
20260505010111 51 235 0.0 0.0 0.00 0.00 0.00 84 1011.8
20260505004556 50 248 0.0 0.0 0.00 0.00 0.00 85 1011.5
20260505003054 50 242 0.0 0.0 0.00 0.00 0.00 85 1011.3
20260505001551 50 252 0.0 0.0 0.00 0.00 0.00 84 1011.0
20260505000042 51 200 0.0 0.9 0.00 0.00 0.00 83 1010.7
20260504234533 51 194 0.0 0.0 0.00 0.00 0.00 82 1010.5
20260504233019 51 195 0.0 0.9 0.00 0.00 0.00 82 1010.4
20260504231519 51 180 0.0 1.7 0.00 0.00 0.00 81 1010.3
20260504230018 51 184 0.0 0.0 0.00 0.00 0.00 81 1010.3
20260504224522 51 194 0.0 0.0 0.00 0.00 0.00 81 1010.3
20260504223015 51 243 0.0 0.0 0.00 0.00 0.00 81 1010.2
20260504221514 52 184 0.0 0.0 0.00 0.00 0.00 81 1010.3
20260504220013 52 194 0.0 0.0 0.00 0.00 0.00 81 1010.3
20260504214515 51 186 0.0 0.0 0.00 0.00 0.00 80 1010.3
20260504213009 53 171 0.0 1.7 0.00 0.00 0.00 79 1010.2
20260504211601 54 144 0.0 7.8 0.00 0.00 0.00 77 1010.3
20260504204559 53 206 0.0 6.1 0.00 0.00 0.00 77 1010.3
20260504203055 53 179 0.0 7.0 0.00 0.00 0.00 78 1010.1
20260504201557 53 186 0.0 5.2 0.00 0.00 0.00 78 1010.2
20260504194552 53 176 0.0 5.2 0.00 0.00 0.00 78 1010.3
20260504193051 53 193 0.0 8.7 0.00 0.00 0.00 78 1010.3
20260504191534 52 170 0.0 7.8 0.00 0.00 0.00 79 1010.5
20260504190032 53 205 0.0 4.3 0.00 0.00 0.00 78 1010.6
20260504184515 53 198 0.0 7.0 0.00 0.00 0.00 77 1010.6
20260504183013 52 175 0.0 0.9 0.00 0.00 0.00 78 1010.8
20260504181549 52 211 0.0 0.9 0.00 0.00 0.00 79 1010.8
20260504180049 52 214 0.0 1.7 0.00 0.00 0.00 79 1011.1
20260504174530 52 195 0.0 2.6 0.00 0.00 0.00 79 1011.1
20260504173029 52 227 0.0 3.5 0.00 0.00 0.00 80 1011.3
20260504171511 52 229 0.0 0.0 0.00 0.00 0.00 80 1011.4
20260504170109 51 231 0.0 0.0 0.00 0.00 0.00 81 1011.6
20260504120132 50 239 0.0 0.0 0.00 0.00 0.00 80 1013.1
20260504081527 46 239 0.0 0.0 0.00 0.00 0.00 86 1012.2
20260504050022 46 255 0.0 0.0 0.00 0.00 0.00 82 1011.5
20260504044512 47 260 0.0 0.0 0.00 0.00 0.00 81 1011.6
20260504043012 47 250 0.0 0.0 0.00 0.00 0.00 80 1011.6
20260504041507 47 249 0.0 0.0 0.00 0.00 0.00 78 1011.6
20260504040006 47 258 0.0 0.0 0.00 0.00 0.00 77 1011.5
20260504034508 47 262 0.0 0.0 0.00 0.00 0.00 76 1011.5
20260504033003 46 249 0.0 0.0 0.00 0.00 0.00 79 1011.3